Location: Trois-Rivi�res
(46.3500°N, 72.5500°W)
Time: 03:59:58
(UTC-05:00)

Daily predictions for brighter satellites

Satellite Brightness Start Highest point End
(mag) Time Altitude Azimuth Time Altitude Azimuth Time Altitude Azimuth
ADEOS Rocket 4.4 02:32:26 10° NNE 02:36:33 37° NE 02:36:33 37° NE
ADEOS II 4.0 02:55:27 10° NE 02:59:46 25° E 02:59:46 25° E
Resurs 1-4 Rocket 4.4 03:16:51 10° N 03:17:53 16° N 03:17:53 16° N
CZ-2D R/B 4.3 03:17:56 10° N 03:19:09 17° N 03:19:09 17° N
Cosmos 2369 Rocket 2.8 03:29:05 53° NE 03:29:05 53° NE 03:33:27 10° NNE
MOS 1 Rocket 4.2 03:33:29 10° NNE 03:37:34 52° NNE 03:37:34 52° NNE
Cosmos 1867 4.1 03:41:01 53° NNE 03:41:01 53° NNE 03:45:11 10° NE
IRAS Rocket 4.4 03:36:31 10° NNE 03:41:47 68° E 03:41:47 68° E
IRS-1C Rocket 4.3 03:42:00 10° NNE 03:46:54 69° ENE 03:46:54 69° ENE
Cosmos 1833 4.2 03:49:19 66° NNE 03:49:57 74° ENE 03:55:32 10° SSE
Cosmos 1624 Rocket 4.0 03:58:05 80° NE 03:58:05 80° NE 04:03:10 10° NNE
Cosmos 2056 Rocket 3.4 03:59:39 79° ENE 03:59:39 79° ENE 04:04:38 10° NNE
Okean O Rocket 3.2 03:55:34 10° N 03:57:38 28° N 03:57:38 28° N
Cosmos 972 Rocket 3.9 04:03:53 83° NNW 04:03:53 83° NNW 04:09:20 10° NNE
ATLAS 5 CENTAUR R/B 1.8 04:04:33 80° E 04:04:33 80° E 04:09:37 10° NE
Cosmos 1954 Rocket 4.5 04:00:31 10° NNW 04:05:48 61° ENE 04:11:04 10° SE
ERS-2 3.6 04:03:02 10° NNE 04:05:16 33° NNE 04:05:16 33° NNE
Cosmos 1943 Rocket 2.1 04:10:09 58° S 04:11:16 82° ESE 04:16:51 10° NNE
COSMO-SKYMED 1 4.4 04:11:24 10° SE 04:15:11 30° ENE 04:19:01 10° N
Cosmos 2263 4.0 04:15:05 67° W 04:15:26 69° WNW 04:21:04 10° NNE
CZ-4B R/B 3.1 04:10:08 10° NNE 04:15:44 74° WNW 04:16:48 58° SW
Lacrosse 5 rocket 3.0 04:16:57 22° N 04:17:17 23° NNE 04:20:13 10° ENE
Cosmos 2266 Rocket 4.4 04:12:05 10° NNW 04:16:39 43° NW 04:16:39 43° NW
Nadezhda 2 Rocket 4.3 04:12:15 10° N 04:18:22 79° W 04:24:29 10° S
Lacrosse 5 1.9 04:19:12 63° SSW 04:19:57 77° SE 04:25:02 10° NE
USA 234 3.4 04:16:12 10° NE 04:22:43 68° SE 04:26:03 31° SSW
ADEOS Rocket 4.2 04:18:35 10° N 04:23:30 27° NW 04:23:30 27° NW
Cosmos 1371 Rocket 4.4 04:28:17 44° NW 04:28:17 44° NW 04:32:55 10° N
Meteor 1-14 Rocket 4.3 04:26:02 10° N 04:31:56 83° E 04:37:38 10° SSE
Thor Agena Rocket 3.5 04:28:26 10° SSE 04:33:39 89° ENE 04:38:51 10° NNW
Okean 1-7 3.5 04:32:26 10° S 04:36:38 59° E 04:40:50 10° NNE
ADEOS II 2.3 04:34:39 10° N 04:39:43 48° WNW 04:40:44 43° WSW
Abrixas 3.3 04:41:04 45° NE 04:41:04 45° NE 04:43:17 10° ENE
Cosmos 1452 Rocket 3.5 04:36:34 17° SSW 04:40:40 82° ESE 04:45:59 10° NNE
Cosmos 1745 Rocket 4.3 04:34:36 10° N 04:40:45 65° E 04:46:49 10° SSE
Cosmos 1023 Rocket 4.4 04:35:31 10° NNW 04:40:47 89° WSW 04:46:04 10° SSE
PSLV R/B 4.3 04:38:27 10° N 04:41:28 34° NW 04:41:28 34° NW
Cosmos 1417 Rocket 4.5 04:37:38 10° S 04:43:49 85° E 04:50:00 10° N
ATLAS 3B R/B 4.4 04:40:24 10° S 04:47:04 35° ESE 04:53:32 10° NE
Cosmos 1782 Rocket 3.4 04:44:09 10° NNW 04:48:37 69° W 04:53:02 10° S
Cosmos 1741 Rocket 4.3 04:44:34 10° NNW 04:49:49 69° ENE 04:55:03 10° SSE
Cosmos 2297 Rocket 4.1 04:46:52 10° N 04:51:47 29° NE 04:56:40 10° ESE
Cosmos 407 Rocket 4.3 04:54:00 30° WSW 04:54:00 30° WSW 04:57:45 10° SSW
Meteor 1-26 Rocket 4.1 04:48:21 10° SSW 04:54:00 70° WNW 04:59:37 10° N
Okean-O 2.5 04:51:34 10° N 04:55:59 66° WNW 04:59:52 13° SSW
Cosmos 676 Rocket 4.4 04:53:10 10° NW 04:58:07 41° WSW 05:03:04 10° S
Meteor 1-25 Rocket 4.2 04:52:44 10° NNW 04:58:36 85° W 05:04:26 10° S
Tiangong 1 2.2 05:00:17 28° S 05:00:45 30° SSE 05:03:23 10° ESE
SKYMED 2 3.5 04:58:46 10° SSE 05:03:07 89° W 05:07:29 10° NNW
Meteor 1-31 Rocket 2.9 05:00:48 10° N 05:04:35 49° WNW 05:06:42 23° SW
Cosmos 2219 3.1 05:00:58 10° NNW 05:06:37 68° WSW 05:12:12 10° SSE
Cosmos 1140 Rocket 3.6 05:06:25 10° NNW 05:11:28 50° WSW 05:16:30 10° S
USA 81 4.2 05:06:18 10° S 05:11:34 76° E 05:16:51 10° N
CZ-4C R/B 2.2 05:06:47 13° SW 05:11:35 87° NW 05:17:43 10° NE
Cosmos 2227 Rocket 3.2 05:06:36 10° NNW 05:12:07 48° ENE 05:17:36 10° SE
Cosmos 2369 Rocket 3.4 05:10:54 21° WNW 05:12:24 23° NW 05:16:50 10° N
Okean 2 Rocket 3.2 05:09:56 10° NNW 05:14:11 50° W 05:18:25 10° SSW
Cosmos 1656 Rocket 3.7 05:10:11 10° SW 05:15:51 68° WNW 05:21:32 10° NNE
Cosmos 614 Rocket 4.0 05:13:15 10° NNW 05:18:15 56° WSW 05:23:15 10° S
CZ-4 R/B 4.3 05:15:13 10° NE 05:18:30 22° E 05:21:44 10° SE
Meteor 1-10 Rocket 4.3 05:19:35 10° S 05:25:09 84° E 05:30:51 10° NNE
Cosmos 1703 Rocket 4.4 05:22:54 16° WSW 05:25:36 29° WNW 05:29:26 10° NNW
S3M 4.1 05:25:53 10° SSW 05:32:05 56° WNW 05:38:15 10° N
Okean 1 Rocket 4.2 05:28:55 10° N 05:33:12 47° ENE 05:37:26 10° SSE
Cosmos 2151 Rocket 3.6 05:29:06 10° NNW 05:33:36 66° W 05:38:02 10° S
Cosmos 1553 Rocket 4.2 05:33:27 10° SSW 05:39:24 47° WNW 05:45:30 10° N
ERS-2 4.1 05:38:26 10° NW 05:39:58 12° WNW 05:40:04 12° WNW
Cosmos 1850 Rocket 4.3 05:35:28 10° NNW 05:40:31 44° WSW 05:45:32 10° S
Cosmos 1633 2.5 05:41:33 10° N 05:45:13 82° W 05:48:49 10° S
Meteor 2-10 Rocket 4.4 05:42:01 10° WSW 05:46:08 25° WNW 05:50:19 10° NNW
Radarsat Rocket 4.4 05:41:47 10° NNE 05:49:07 62° WNW 05:55:32 10° SW
Meteor 2-11 Rocket 4.5 05:43:30 10° SSW 05:49:33 64° WNW 05:55:40 10° N
Cosmos 1536 3.6 05:45:47 10° N 05:49:44 56° ENE 05:53:40 10° SSE
ATLAS 5 CENTAUR R/B 3.3 05:46:07 12° W 05:49:45 24° NNW 05:54:08 10° NNE
Ariane Rocket 3.0 05:45:45 10° NNE 05:50:52 82° WNW 05:55:57 10° SSW
SL-24 R/B - RUBIN 2 4.5 05:44:48 10° NW 05:51:06 78° NE 05:56:38 10° SE
COSMO-SKYMED 1 3.4 05:47:34 10° SSW 05:51:20 28° W 05:55:08 10° NW
IDEFIX/ARIANE 42P 3.2 05:49:10 10° NNE 05:54:22 61° E 05:59:30 10° S
Cosmos 1943 Rocket 3.5 05:51:42 10° W 05:55:43 20° NW 05:59:49 10° N
Lacrosse 5 rocket 0.9 05:53:15 10° NW 05:56:53 86° SW 06:00:29 10° SE
Meteor 1-28 Rocket 4.2 05:57:47 10° SSW 06:00:57 26° W 06:04:08 10° NW
Meteor 1-27 Rocket 3.8 05:55:43 10° SSW 06:01:30 83° W 06:07:27 10° N
Lacrosse 5 2.8 05:58:42 10° W 06:03:20 34° NNW 06:07:59 10° NE
USA 234 3.6 05:59:20 10° NE 06:05:37 51° NNW 06:11:53 10° W
Cosmos 1709 Rocket 4.0 06:01:37 10° NNW 06:07:37 60° W 06:13:37 10° S
Cosmos 1486 Rocket 4.3 06:03:03 10° NNW 06:08:21 75° ENE 06:13:34 10° SSE
Helios 1B rocket 3.6 06:04:29 10° SE 06:08:25 48° ENE 06:12:25 10° N
CSL-04 Rocket 3.7 06:06:06 10° N 06:11:26 66° WNW 06:16:48 10° SSW
USA 238 DEB 4.2 06:04:51 10° SSW 06:11:47 69° ESE 06:18:46 10° NE
USA 238 4.2 06:04:57 10° SSW 06:11:53 68° ESE 06:18:52 10° NE
Cosmos 2082 3.7 06:06:48 10° NNW 06:12:28 71° WSW 06:18:03 10° SSE
